TimeCDT,TemperatureF,Dew PointF,Humidity,Sea Level PressureIn,VisibilityMPH,Wind Direction,Wind SpeedMPH,Gust SpeedMPH,PrecipitationIn,Events,Conditions,WindDirDegrees,DateUTC
12:53 AM,79.0,60.1,52,29.88,10.0,South,15.0,-,N/A,,Clear,170,2012-07-16 05:53:00
1:53 AM,77.0,60.1,56,29.88,10.0,South,12.7,-,N/A,,Clear,180,2012-07-16 06:53:00
2:53 AM,73.9,59.0,59,29.89,10.0,South,11.5,-,N/A,,Clear,180,2012-07-16 07:53:00
3:53 AM,73.9,57.9,57,29.88,10.0,South,9.2,-,N/A,,Clear,180,2012-07-16 08:53:00
4:53 AM,75.9,57.9,54,29.88,10.0,South,13.8,-,N/A,,Clear,190,2012-07-16 09:53:00
5:53 AM,75.0,59.0,57,29.88,10.0,SSW,11.5,-,N/A,,Clear,200,2012-07-16 10:53:00
6:53 AM,73.9,60.1,62,29.88,10.0,South,8.1,-,N/A,,Clear,190,2012-07-16 11:53:00
7:53 AM,75.9,61.0,60,29.89,10.0,SSW,10.4,-,N/A,,Clear,200,2012-07-16 12:53:00
8:53 AM,80.1,62.1,54,29.88,10.0,South,13.8,-,N/A,,Clear,190,2012-07-16 13:53:00
9:53 AM,84.9,62.1,46,29.87,10.0,SSW,12.7,-,N/A,,Clear,200,2012-07-16 14:53:00
10:53 AM,89.1,63.0,42,29.87,10.0,SSW,13.8,20.7,N/A,,Clear,200,2012-07-16 15:53:00
11:53 AM,91.0,63.0,39,29.86,10.0,South,15.0,-,N/A,,Clear,170,2012-07-16 16:53:00
12:53 PM,91.9,60.1,34,29.85,10.0,South,10.4,-,N/A,,Clear,190,2012-07-16 17:53:00
1:53 PM,93.9,61.0,33,29.83,10.0,SSE,15.0,-,N/A,,Clear,160,2012-07-16 18:53:00
2:53 PM,95.0,60.1,31,29.82,10.0,South,11.5,20.7,N/A,,Clear,180,2012-07-16 19:53:00
3:53 PM,95.0,61.0,32,29.81,10.0,SSE,12.7,18.4,N/A,,Clear,150,2012-07-16 20:53:00
4:53 PM,93.0,66.0,41,29.80,10.0,SE,9.2,-,N/A,,Clear,130,2012-07-16 21:53:00
5:53 PM,93.0,66.0,41,29.78,10.0,SE,12.7,-,N/A,,Clear,140,2012-07-16 22:53:00
6:53 PM,91.0,66.9,45,29.76,10.0,SSE,12.7,-,N/A,,Clear,150,2012-07-16 23:53:00
7:53 PM,89.1,66.9,48,29.75,10.0,SE,9.2,-,N/A,,Clear,140,2012-07-17 00:53:00
8:53 PM,84.9,66.9,55,29.75,10.0,SE,8.1,-,N/A,,Clear,140,2012-07-17 01:53:00
9:53 PM,82.0,66.9,60,29.76,10.0,SE,9.2,-,N/A,,Clear,140,2012-07-17 02:53:00
10:53 PM,81.0,66.9,62,29.78,10.0,SSE,10.4,-,N/A,,Clear,150,2012-07-17 03:53:00
11:53 PM,79.0,66.0,64,29.78,10.0,South,8.1,-,N/A,,Clear,170,2012-07-17 04:53:00